Time,TemperatureF,DewpointF,PressureIn,WindDirection,WindDirectionDegrees,WindSpeedMPH,WindSpeedGustMPH,Humidity,HourlyPrecipIn,Conditions,Clouds,dailyrainin,SolarRadiationWatts/m^2,SoftwareType,DateUTC
2014-01-28 00:02:00,-17.0,-25.0,-100.00,West,270,9.0,14.0,64,0.00,,,0.00,0.000000,,2014-01-28 06:02:00,
2014-01-28 00:42:00,-17.0,-25.0,-100.00,West,270,9.0,14.0,64,0.00,,,0.00,0.000000,,2014-01-28 06:42:00,
2014-01-28 00:52:00,-17.0,-25.0,-100.00,West,270,9.0,14.0,64,0.00,,,0.00,0.000000,,2014-01-28 06:52:00,
2014-01-28 01:02:00,-17.0,-25.0,-100.00,West,274,7.0,17.0,64,0.00,,,0.00,0.000000,,2014-01-28 07:02:00,
2014-01-28 01:42:00,-17.0,-25.0,-100.00,West,274,7.0,17.0,64,0.00,,,0.00,0.000000,,2014-01-28 07:42:00,
2014-01-28 01:52:00,-17.0,-25.0,-100.00,West,274,7.0,17.0,64,0.00,,,0.00,0.000000,,2014-01-28 07:52:00,
2014-01-28 02:42:00,-18.0,-26.0,-100.00,West,270,8.0,14.0,65,0.00,,,0.00,0.000000,,2014-01-28 08:42:00,
2014-01-28 02:52:00,-18.0,-26.0,-100.00,West,270,8.0,14.0,65,0.00,,,0.00,0.000000,,2014-01-28 08:52:00,
2014-01-28 03:01:00,-18.0,-26.0,-100.00,West,270,8.0,14.0,65,0.00,,,0.00,0.000000,,2014-01-28 09:01:00,
2014-01-28 03:02:00,-19.0,-27.0,-100.00,West,264,7.0,16.0,65,0.00,,,0.00,0.000000,,2014-01-28 09:02:00,
2014-01-28 03:43:00,-19.0,-27.0,-100.00,West,264,7.0,16.0,65,0.00,,,0.00,0.000000,,2014-01-28 09:43:00,
2014-01-28 03:54:00,-19.0,-27.0,-100.00,West,264,7.0,16.0,65,0.00,,,0.00,0.000000,,2014-01-28 09:54:00,
2014-01-28 04:02:00,-20.0,-28.0,-100.00,West,262,6.0,13.0,66,0.00,,,0.00,0.000000,,2014-01-28 10:02:00,
2014-01-28 04:42:00,-20.0,-28.0,-100.00,West,262,6.0,13.0,66,0.00,,,0.00,0.000000,,2014-01-28 10:42:00,
2014-01-28 04:53:00,-20.0,-28.0,-100.00,West,262,6.0,13.0,66,0.00,,,0.00,0.000000,,2014-01-28 10:53:00,
2014-01-28 05:02:00,-21.0,-29.0,-100.00,West,262,6.0,11.0,65,0.00,,,0.00,0.000000,,2014-01-28 11:02:00,
2014-01-28 05:42:00,-21.0,-29.0,-100.00,West,262,6.0,11.0,65,0.00,,,0.00,0.000000,,2014-01-28 11:42:00,
2014-01-28 05:52:00,-21.0,-29.0,-100.00,West,262,6.0,11.0,65,0.00,,,0.00,0.000000,,2014-01-28 11:52:00,
2014-01-28 06:02:00,-22.0,-30.0,-100.00,West,271,5.0,11.0,65,0.00,,,-99.99,0.000000,,2014-01-28 12:02:00,
2014-01-28 06:42:00,-22.0,-30.0,-100.00,West,271,5.0,11.0,65,0.00,,,-99.99,0.000000,,2014-01-28 12:42:00,
2014-01-28 06:52:00,-22.0,-30.0,-100.00,West,271,5.0,11.0,65,0.00,,,-99.99,0.000000,,2014-01-28 12:52:00,
2014-01-28 07:02:00,-23.0,-31.0,-100.00,WSW,245,6.0,11.0,65,0.00,,,0.00,0.000000,,2014-01-28 13:02:00,
2014-01-28 07:42:00,-23.0,-31.0,-100.00,WSW,245,6.0,11.0,65,0.00,,,0.00,0.000000,,2014-01-28 13:42:00,
2014-01-28 07:52:00,-23.0,-31.0,-100.00,WSW,245,6.0,11.0,65,0.00,,,0.00,0.000000,,2014-01-28 13:52:00,
2014-01-28 08:02:00,-23.0,-31.0,-100.00,West,261,6.0,11.0,64,0.00,,,0.00,9.000000,,2014-01-28 14:02:00,
2014-01-28 08:42:00,-23.0,-31.0,-100.00,West,261,6.0,11.0,64,0.00,,,0.00,9.000000,,2014-01-28 14:42:00,
2014-01-28 08:52:00,-23.0,-31.0,-100.00,West,261,6.0,11.0,64,0.00,,,0.00,9.000000,,2014-01-28 14:52:00,
2014-01-28 09:02:00,-17.0,-27.0,-100.00,West,264,7.0,14.0,58,0.00,,,0.00,157.000000,,2014-01-28 15:02:00,
2014-01-28 09:43:00,-17.0,-27.0,-100.00,West,264,7.0,14.0,58,0.00,,,0.00,157.000000,,2014-01-28 15:43:00,
2014-01-28 09:53:00,-17.0,-27.0,-100.00,West,264,7.0,14.0,58,0.00,,,0.00,157.000000,,2014-01-28 15:53:00,
2014-01-28 10:02:00,-11.0,-23.0,-100.00,West,262,7.0,17.0,55,0.00,,,0.00,377.000000,,2014-01-28 16:02:00,
2014-01-28 10:43:00,-11.0,-23.0,-100.00,West,262,7.0,17.0,55,0.00,,,0.00,377.000000,,2014-01-28 16:43:00,
2014-01-28 10:53:00,-11.0,-23.0,-100.00,West,262,7.0,17.0,55,0.00,,,0.00,377.000000,,2014-01-28 16:53:00,
2014-01-28 11:02:00,-7.0,-20.0,-100.00,West,261,9.0,18.0,51,0.00,,,0.00,498.000000,,2014-01-28 17:02:00,
2014-01-28 11:22:00,-7.0,-20.0,-100.00,West,261,9.0,18.0,51,0.00,,,0.00,498.000000,,2014-01-28 17:22:00,
2014-01-28 11:33:00,-7.0,-20.0,-100.00,West,261,9.0,18.0,51,0.00,,,0.00,498.000000,,2014-01-28 17:33:00,
2014-01-28 11:43:00,-7.0,-20.0,-100.00,West,261,9.0,18.0,51,0.00,,,0.00,498.000000,,2014-01-28 17:43:00,
2014-01-28 11:53:00,-7.0,-20.0,-100.00,West,261,9.0,18.0,51,0.00,,,0.00,498.000000,,2014-01-28 17:53:00,
2014-01-28 12:43:00,-4.0,-18.0,-100.00,WSW,257,9.0,19.0,50,0.00,,,0.00,539.000000,,2014-01-28 18:43:00,
2014-01-28 12:52:00,-4.0,-18.0,-100.00,WSW,257,9.0,19.0,50,0.00,,,0.00,539.000000,,2014-01-28 18:52:00,
2014-01-28 13:01:00,-4.0,-18.0,-100.00,WSW,257,9.0,19.0,50,0.00,,,0.00,539.000000,,2014-01-28 19:01:00,
2014-01-28 13:02:00,-2.0,-16.0,-100.00,WSW,256,10.0,19.0,49,0.00,,,0.00,558.000000,,2014-01-28 19:02:00,
2014-01-28 13:42:00,-2.0,-16.0,-100.00,WSW,256,10.0,19.0,49,0.00,,,0.00,558.000000,,2014-01-28 19:42:00,
2014-01-28 13:52:00,-2.0,-16.0,-100.00,WSW,256,10.0,19.0,49,0.00,,,0.00,558.000000,,2014-01-28 19:52:00,
2014-01-28 14:02:00,-2.0,-16.0,-100.00,West,259,9.0,20.0,51,0.00,,,0.00,472.000000,,2014-01-28 20:02:00,
2014-01-28 14:42:00,-2.0,-16.0,-100.00,West,259,9.0,20.0,51,0.00,,,0.00,472.000000,,2014-01-28 20:42:00,
2014-01-28 14:52:00,-2.0,-16.0,-100.00,West,259,9.0,20.0,51,0.00,,,0.00,472.000000,,2014-01-28 20:52:00,
2014-01-28 15:02:00,-4.0,-16.0,-100.00,WSW,254,9.0,19.0,56,0.00,,,0.00,198.000000,,2014-01-28 21:02:00,
2014-01-28 15:44:00,-4.0,-16.0,-100.00,WSW,254,9.0,19.0,56,0.00,,,0.00,198.000000,,2014-01-28 21:44:00,
2014-01-28 15:53:00,-4.0,-16.0,-100.00,WSW,254,9.0,19.0,56,0.00,,,0.00,198.000000,,2014-01-28 21:53:00,
2014-01-28 16:02:00,-4.0,-15.0,-100.00,WSW,250,8.0,20.0,57,0.00,,,0.00,82.000000,,2014-01-28 22:02:00,
2014-01-28 16:43:00,-4.0,-15.0,-100.00,WSW,250,8.0,20.0,57,0.00,,,0.00,82.000000,,2014-01-28 22:43:00,
2014-01-28 16:53:00,-4.0,-15.0,-100.00,WSW,250,8.0,20.0,57,0.00,,,0.00,82.000000,,2014-01-28 22:53:00,
2014-01-28 17:02:00,-6.0,-17.0,-100.00,WSW,247,8.0,19.0,59,0.00,,,0.00,30.000000,,2014-01-28 23:02:00,
2014-01-28 17:42:00,-6.0,-17.0,-100.00,WSW,247,8.0,19.0,59,0.00,,,0.00,30.000000,,2014-01-28 23:42:00,
2014-01-28 17:53:00,-6.0,-17.0,-100.00,WSW,247,8.0,19.0,59,0.00,,,0.00,30.000000,,2014-01-28 23:53:00,
2014-01-28 18:22:00,-8.0,-18.0,-100.00,WSW,251,9.0,16.0,60,0.00,,,0.00,1.000000,,2014-01-29 00:22:00,
2014-01-28 18:32:00,-8.0,-18.0,-100.00,WSW,251,9.0,16.0,60,0.00,,,0.00,1.000000,,2014-01-29 00:32:00,
2014-01-28 18:42:00,-8.0,-18.0,-100.00,WSW,251,9.0,16.0,60,0.00,,,0.00,1.000000,,2014-01-29 00:42:00,
2014-01-28 18:52:00,-8.0,-18.0,-100.00,WSW,251,9.0,16.0,60,0.00,,,0.00,1.000000,,2014-01-29 00:52:00,
2014-01-28 19:01:00,-8.0,-18.0,-100.00,WSW,251,9.0,16.0,60,0.00,,,0.00,1.000000,,2014-01-29 01:01:00,
2014-01-28 19:02:00,-8.0,-17.0,-100.00,WSW,258,10.0,20.0,62,0.00,,,-99.99,0.000000,,2014-01-29 01:02:00,
2014-01-28 19:42:00,-8.0,-17.0,-100.00,WSW,258,10.0,20.0,62,0.00,,,-99.99,0.000000,,2014-01-29 01:42:00,
2014-01-28 19:52:00,-8.0,-17.0,-100.00,WSW,258,10.0,20.0,62,0.00,,,-99.99,0.000000,,2014-01-29 01:52:00,
2014-01-28 20:02:00,-9.0,-18.0,-100.00,WSW,256,9.0,19.0,63,0.00,,,0.00,0.000000,,2014-01-29 02:02:00,
2014-01-28 20:42:00,-9.0,-18.0,-100.00,WSW,256,9.0,19.0,63,0.00,,,0.00,0.000000,,2014-01-29 02:42:00,
2014-01-28 20:52:00,-9.0,-18.0,-100.00,WSW,256,9.0,19.0,63,0.00,,,0.00,0.000000,,2014-01-29 02:52:00,
2014-01-28 22:02:00,-8.0,-17.0,-100.00,West,259,8.0,17.0,65,-99.99,,,0.00,0.000000,,2014-01-29 04:02:00,
2014-01-28 22:23:00,-8.0,-17.0,-100.00,West,259,8.0,17.0,65,-99.99,,,0.00,0.000000,,2014-01-29 04:23:00,
2014-01-28 22:34:00,-8.0,-17.0,-100.00,West,259,8.0,17.0,65,-99.99,,,0.00,0.000000,,2014-01-29 04:34:00,
2014-01-28 22:43:00,-8.0,-17.0,-100.00,West,259,8.0,17.0,65,-99.99,,,0.00,0.000000,,2014-01-29 04:43:00,
2014-01-28 22:53:00,-8.0,-17.0,-100.00,West,259,8.0,17.0,65,-99.99,,,0.00,0.000000,,2014-01-29 04:53:00,
2014-01-28 23:02:00,-7.0,-16.0,-100.00,WSW,249,9.0,18.0,65,0.00,,,0.00,0.000000,,2014-01-29 05:02:00,
2014-01-28 23:22:00,-7.0,-16.0,-100.00,WSW,249,9.0,18.0,65,0.00,,,0.00,0.000000,,2014-01-29 05:22:00,
2014-01-28 23:34:00,-7.0,-16.0,-100.00,WSW,249,9.0,18.0,65,0.00,,,0.00,0.000000,,2014-01-29 05:34:00,
2014-01-28 23:43:00,-7.0,-16.0,-100.00,WSW,249,9.0,18.0,65,0.00,,,0.00,0.000000,,2014-01-29 05:43:00,
2014-01-28 23:53:00,-7.0,-16.0,-100.00,WSW,249,9.0,18.0,65,0.00,,,0.00,0.000000,,2014-01-29 05:53:00,